Hourly Data Report for October 25, 2013

All times are specified in Local Standard Time (LST). Add 1 hour to adjust for Daylight Saving Time where and when it is observed.

CAPE DORSET A
NUNAVUT

64°13'49.000" N
76°31'30.000" W
48.20 m
2400637
71366
YTE

Download Data

Hourly Data (October 2013)
Hourly Data Report for October 25, 2013
Temp Definition
°C
Dew Point Temp Definition
°C
Rel Hum Definition
%
Wind Dir Definition
10's deg

Wind Spd Definition
km/h
Visibility Definition
km
Stn Press Definition
kPa
Hmdx Definition


Wind Chill Definition


Weather Definition


TIME
00:00 Legend Double Dagger -4.3 -5.1 94 2 5 16.1 99.99   -6 LegendNANA
01:00 Legend Double Dagger -4.2 -5.3 92 32 4 16.1 99.98   -6 LegendNANA
02:00 Legend Double Dagger -4.0 -5.3 91 31 4 16.1 99.97   -6 LegendNANA
03:00 Legend Double Dagger -3.9 -5.2 91 29 4 16.1 99.95   -6 LegendNANA
04:00 Legend Double Dagger -4.2 -5.6 90 LegendMM 4 16.1 99.93   -6 LegendNANA
05:00 Legend Double Dagger -4.2 -5.8 89 1 4 16.1 99.93   -6 LegendNANA
06:00 Legend Double Dagger -4.1 -5.4 91 7 4 16.1 99.92   -6 LegendNANA
07:00 Legend Double Dagger -4.1 -5.5 90 7 8 16.1 99.93   -8 LegendNANA
08:00 Legend Double Dagger -4.3 -5.4 92 1 4 16.1 99.90   -6 LegendNANA
09:00 Legend Double Dagger -4.4 -5.5 92 35 5 8.1 99.91   -7 LegendNANA
10:00 Legend Double Dagger -4.3 -5.4 92 31 5 16.1 99.89   -6 LegendNANA
11:00 Legend Double Dagger -4.2 -5.5 91   0 6.4 99.87     LegendNANA
12:00 Legend Double Dagger -4.0 -5.2 91 1 4 6.4 99.88   -6 LegendNANA
13:00 Legend Double Dagger -3.7 -5.0 91 LegendMM 4 16.1 99.88   -5 LegendNANA
14:00 Legend Double Dagger -3.5 -4.8 91 9 5 16.1 99.88   -6 LegendNANA
15:00 Legend Double Dagger -3.4 -5.0 89 9 5 16.1 99.89   -5 LegendNANA
16:00 Legend Double Dagger -3.5 -4.9 90 12 4 16.1 99.88   -5 LegendNANA
17:00 Legend Double Dagger -3.4 -4.8 90 15 4 16.1 99.88   -5 LegendNANA
18:00 Legend Double Dagger -3.3 -4.9 89 13 5 16.1 99.87   -5 LegendNANA
19:00 Legend Double Dagger -3.0 -4.4 90 14 5 16.1 99.85   -5 LegendNANA
20:00 Legend Double Dagger -2.9 -4.5 89   0 16.1 99.83     LegendNANA
21:00 Legend Double Dagger -2.7 -4.1 90 18 8 16.1 99.79   -6 LegendNANA
22:00 Legend Double Dagger -2.7 -3.7 93 18 11 8.1 99.74   -7 LegendNANA
23:00 Legend Double Dagger -2.5 -3.9 90 18 13 16.1 99.70   -7 LegendNANA

Notes on Data Quality.

Legend

  • E = Estimated
  • M = Missing
  • NA = Not Available
  • ‡ = Partner data that is not subject to review by the National Climate Archives
Date modified: